Wind_Speed
25 24 22 21 20 19 18 16 13 11 11 12 10 10 11 11 16 19 22 24 25 25 26 29 31 29 19 5 9 7 8 13 15 16 16 14 16 19 16 15 16 16 16 14 14
31 30 29 28 26 25 23 22 20 18 17 14 12 11 10 9 10 13 16 19 21 22 24 25 28 31 28 11 4 9 10 9 11 13 14 13 9 9 9 9 4 5 8 13 17
35 36 35 34 33 31 31 29 27 25 21 20 17 14 14 12 7 8 11 14 17 19 20 23 26 29 30 20 5 10 10 10 15 12 11 6 2 2 1 2 1 2 7 8 4
36 36 36 36 38 38 36 34 32 31 29 23 22 20 18 16 13 10 7 10 12 15 17 19 20 22 27 27 16 9 12 10 8 10 12 12 7 6 8 7 8 5 2 3 4
41 39 38 37 37 37 37 39 40 38 35 32 29 27 24 21 20 15 12 9 9 12 14 14 17 18 21 25 26 16 11 9 10 8 9 11 4 3 4 2 5 9 8 7 6
50 49 47 46 44 42 40 40 40 40 40 39 37 35 32 25 27 23 17 13 11 9 11 12 12 15 17 19 23 22 11 7 6 4 5 8 8 6 4 7 10 11 5 3 3
57 56 55 54 53 48 48 47 44 43 41 42 42 39 38 32 33 27 22 19 16 14 11 11 9 11 12 13 16 20 19 14 13 11 7 6 9 8 11 10 7 8 10 11 9
62 62 63 62 61 59 55 54 51 48 46 44 44 45 43 41 38 33 31 25 22 18 16 14 11 8 11 11 9 14 17 17 18 17 14 15 12 9 7 8 11 15 17 19 20
65 67 66 66 66 62 59 61 58 55 53 51 49 48 44 42 40 40 36 32 29 25 20 19 17 9 8 9 8 6 11 11 12 17 18 18 15 15 16 18 16 14 16 17 16
66 69 70 72 72 69 67 67 65 62 61 58 56 53 51 48 45 40 38 37 33 30 26 24 22 18 11 10 8 4 3 6 4 8 12 11 11 14 13 10 10 11 13 14 17
49 55 63 63 69 74 73 72 72 70 66 66 63 61 58 55 53 47 43 40 37 33 34 31 29 27 18 15 10 9 4 3 1 4 8 7 7 7 6 6 11 16 15 16 14
46 49 51 52 57 60 69 72 77 75 77 74 68 70 64 62 64 59 51 45 42 40 39 36 38 35 26 22 17 14 11 7 5 2 0 3 3 4 6 9 11 9 7 6 7
46 46 46 47 52 53 55 60 68 73 78 81 77 74 72 68 71 67 61 54 49 46 43 39 47 39 33 31 25 21 19 14 11 10 9 7 6 6 8 10 10 8 3 2 1
46 48 52 49 47 45 52 55 53 59 68 79 83 79 80 77 77 76 69 62 56 52 51 46 50 42 37 37 36 33 28 21 18 16 12 13 13 10 9 14 12 10 8 7 7
49 52 55 56 57 53 47 50 55 54 55 64 71 83 85 83 83 81 77 72 64 60 56 53 55 47 41 44 45 44 36 29 25 22 20 18 16 13 15 14 12 10 11 11 9
50 48 56 58 60 59 58 58 50 52 52 59 55 68 79 86 87 86 84 82 76 69 62 61 63 54 48 48 46 49 38 33 31 27 24 27 23 21 19 20 15 14 14 16 15
64 61 59 60 58 62 61 62 61 56 56 57 58 60 70 80 83 91 88 87 83 78 68 67 66 62 57 53 49 46 45 35 32 31 30 29 30 26 23 23 21 19 19 18 18
73 70 67 66 63 60 65 66 62 59 60 57 56 54 58 69 78 83 91 90 88 82 77 74 73 69 63 59 55 51 50 44 38 35 38 37 36 28 29 28 29 27 23 23 24
77 77 77 74 67 69 67 64 61 62 65 67 67 56 49 60 69 77 82 92 93 89 85 81 78 77 73 68 65 58 53 49 46 39 40 40 40 32 32 35 33 32 31 29 30
80 82 81 81 73 72 69 65 65 68 69 71 71 61 49 50 54 63 76 84 96 96 92 88 86 83 81 78 71 66 62 59 50 44 42 44 45 42 37 38 38 37 36 34 35
85 86 87 85 78 78 73 70 70 71 74 73 71 69 60 50 52 51 67 81 90 100 99 96 93 89 87 83 76 71 69 64 55 49 46 46 46 50 45 44 41 43 41 40 40
87 86 88 87 79 77 72 71 73 73 76 76 73 70 67 59 45 46 58 80 89 97 104 101 99 96 88 83 85 80 76 70 64 54 52 52 51 57 54 46 45 45 45 46 45
89 89 89 89 86 81 73 75 75 74 79 75 77 72 70 64 50 48 56 78 88 93 103 106 102 98 96 93 88 82 75 71 68 64 57 54 51 57 57 53 49 49 47 50 49
93 93 92 89 90 87 83 80 78 78 79 78 75 73 73 70 59 51 54 70 86 91 96 105 105 101 97 90 85 85 80 75 71 68 62 53 53 62 59 56 54 53 52 53 52
96 99 101 97 95 92 86 86 84 83 81 81 76 74 75 70 66 53 54 66 79 90 95 96 103 104 98 94 94 89 85 81 75 66 64 57 60 64 62 60 59 57 55 55 55
104 107 107 105 104 100 94 93 92 88 83 85 81 79 77 70 69 60 64 63 73 85 93 91 96 104 101 99 99 94 90 88 82 75 71 67 62 64 66 63 60 57 55 57 60
91 91 99 108 111 111 104 98 98 94 86 86 82 78 76 71 73 68 63 67 65 79 86 87 90 99 100 103 102 105 97 93 86 80 74 71 65 71 68 65 63 62 60 60 62
Wind_Direction
249 252 255 261 267 273 277 280 281 286 297 314 329 343 355 23 18 23 34 34 31 31 42 43 41 39 36 68 208 211 214 232 224 233 246 256 259 265 277 285 270 262 251 257 273
250 249 251 256 260 264 266 269 273 274 281 283 295 308 322 342 7 12 20 26 29 26 28 36 38 36 36 41 190 197 202 200 234 241 245 248 260 273 268 253 260 307 271 275 274
259 258 257 256 258 259 262 261 266 270 269 273 273 281 293 304 320 347 1 13 15 22 24 31 35 33 34 43 91 180 209 231 234 238 227 199 124 181 108 83 95 260 266 248 260
262 262 264 266 265 263 262 260 262 264 265 263 269 268 273 281 290 299 323 343 1 6 14 26 34 34 35 39 55 155 192 156 168 154 143 122 135 83 111 117 129 121 38 332 322
264 263 265 265 266 266 265 264 261 262 262 262 261 266 266 274 276 280 287 305 330 351 356 15 24 29 35 34 46 69 132 187 178 170 161 125 133 139 108 349 308 304 312 293 282
263 263 262 262 263 262 263 264 264 262 260 261 260 263 265 266 271 274 281 282 291 311 335 352 13 20 34 34 43 54 80 116 137 140 187 152 188 216 226 252 274 282 231 142 88
264 264 265 263 263 260 258 259 260 262 260 258 259 259 262 263 264 267 270 274 277 280 298 315 351 3 12 40 45 50 49 65 79 72 74 153 204 232 251 253 240 166 123 107 110
265 265 265 265 263 263 261 256 254 254 257 258 256 257 258 259 261 261 261 261 265 267 274 287 301 335 346 12 37 61 55 53 73 84 86 89 105 124 144 157 138 112 108 107 105
267 266 264 264 264 263 261 261 258 251 249 251 253 255 255 255 256 259 261 259 257 261 261 268 278 286 308 329 351 47 71 50 68 76 80 88 101 111 119 117 105 97 96 96 93
265 264 264 265 263 261 259 258 258 255 250 247 246 249 252 252 253 253 255 257 255 255 261 261 263 268 269 281 306 317 85 79 79 85 78 78 95 111 121 117 105 107 103 97 96
272 270 262 260 259 259 259 258 257 254 251 248 245 245 246 250 252 248 248 250 252 249 250 255 261 258 259 263 263 276 257 185 327 77 83 91 103 122 153 152 124 115 108 109 100
285 276 269 263 261 260 259 255 252 253 253 249 245 245 243 243 247 248 245 244 246 248 246 247 251 254 254 252 249 246 253 248 216 241 153 134 150 152 177 170 147 131 116 114 97
298 292 282 274 271 266 263 256 254 250 249 251 248 243 243 240 245 243 245 242 243 244 247 242 246 247 250 255 246 243 240 239 242 219 217 221 222 228 216 202 177 174 221 238 183
305 302 296 292 284 273 271 265 258 250 249 254 247 245 244 240 239 243 241 241 239 240 244 244 244 244 244 248 255 247 239 232 234 237 223 225 222 217 223 213 218 218 232 232 253
301 304 302 299 295 292 280 270 267 254 247 247 250 246 240 242 239 238 238 240 237 237 237 243 244 243 238 238 246 250 240 232 228 233 231 232 229 236 233 223 219 227 250 257 265
295 295 299 296 294 290 286 284 275 265 261 249 248 246 245 239 239 238 237 237 237 233 234 238 243 242 238 236 237 249 244 238 236 233 236 239 232 225 230 245 231 228 234 258 263
294 294 293 289 291 287 284 281 280 280 272 260 253 242 243 243 238 238 237 236 236 234 230 236 242 244 243 242 241 245 254 246 241 238 240 235 239 234 231 239 242 235 232 237 251
290 289 289 291 283 282 280 279 276 272 271 269 263 250 239 242 241 238 235 236 234 234 231 230 235 242 243 246 245 238 241 243 240 232 238 237 240 233 243 244 241 246 241 245 252
287 286 285 286 279 282 278 276 274 270 269 268 267 259 247 240 243 237 238 232 234 232 231 229 233 239 239 238 241 241 242 238 237 233 234 248 248 240 240 250 252 252 255 253 256
281 282 281 281 275 274 276 277 273 266 267 266 267 266 269 229 237 242 236 234 231 231 229 228 230 234 237 238 237 241 239 238 239 233 231 236 246 249 243 249 253 258 259 260 262
279 278 276 273 268 268 271 271 268 265 263 263 265 266 266 244 235 243 237 233 231 229 228 227 227 231 234 237 237 238 242 245 243 238 232 234 240 249 246 247 251 257 259 261 262
279 276 272 265 264 264 264 267 263 262 262 261 261 263 263 259 241 239 241 235 231 228 227 226 226 228 232 234 236 235 238 241 241 237 235 233 234 242 251 249 248 252 259 262 265
276 269 268 265 262 261 259 263 259 257 257 257 256 257 259 259 254 240 237 233 231 230 227 226 226 225 228 230 233 236 239 244 246 245 246 244 239 242 248 253 254 255 256 262 265
274 270 268 261 263 258 258 258 254 254 254 253 253 251 252 255 252 244 237 234 232 231 229 225 225 226 227 229 230 233 235 238 243 244 248 247 238 242 244 249 252 255 258 259 264
270 268 265 259 258 253 255 253 250 250 250 248 248 247 246 247 249 240 236 235 232 232 231 227 225 225 226 227 230 230 231 233 234 237 242 238 237 240 244 247 249 251 255 259 262
265 259 254 254 249 247 250 247 246 245 245 246 246 243 243 245 244 237 235 237 232 233 233 230 226 225 223 227 229 230 230 232 231 230 233 234 239 242 246 249 250 251 253 257 260
263 260 257 252 248 243 243 241 240 239 239 239 239 238 239 238 239 237 233 240 235 232 235 233 229 225 222 225 227 228 228 232 231 230 231 233 235 240 245 249 251 252 254 257 260
Height
10987 10988 10989 10989 10989 10989 10989 10991 10991 10991 10991 10990 10991 10991 10989 10989 10987 10985 10983 10980 10977 10975 10973 10972 10968 10965 10962 10962 10963 10965 10967 10969 10970 10971 10974 10975 10975 10976 10975 10973 10973 10974 10975 10976 10977
10982 10983 10985 10985 10986 10986 10987 10987 10988 10989 10989 10989 10989 10989 10989 10989 10989 10988 10986 10983 10980 10978 10976 10974 10971 10967 10964 10961 10961 10963 10965 10967 10969 10971 10973 10974 10973 10973 10973 10973 10972 10972 10973 10974 10975
10977 10978 10979 10980 10981 10982 10983 10983 10984 10985 10986 10986 10987 10987 10987 10988 10989 10988 10987 10985 10983 10980 10979 10977 10973 10970 10967 10963 10960 10962 10965 10967 10967 10971 10971 10971 10971 10972 10970 10971 10971 10972 10973 10974 10974
10970 10971 10972 10973 10975 10977 10977 10978 10979 10980 10982 10983 10982 10984 10984 10985 10987 10987 10987 10986 10985 10982 10980 10980 10978 10975 10972 10968 10964 10962 10965 10967 10968 10969 10969 10968 10971 10972 10972 10973 10973 10973 10974 10974 10973
10961 10963 10965 10966 10968 10969 10970 10971 10973 10974 10975 10977 10978 10978 10980 10982 10982 10985 10986 10986 10985 10983 10981 10981 10981 10977 10974 10971 10967 10965 10966 10967 10967 10968 10968 10967 10971 10972 10972 10973 10973 10972 10971 10971 10971
10952 10954 10955 10957 10959 10962 10963 10963 10965 10966 10968 10970 10973 10973 10974 10979 10978 10980 10984 10985 10984 10983 10981 10981 10981 10980 10977 10973 10971 10970 10970 10968 10968 10967 10968 10966 10969 10971 10971 10972 10972 10971 10971 10970 10970
10940 10941 10942 10944 10947 10951 10954 10953 10957 10958 10959 10961 10964 10966 10966 10973 10973 10977 10979 10981 10982 10982 10981 10979 10980 10980 10979 10977 10974 10972 10971 10970 10967 10966 10965 10965 10967 10969 10971 10971 10971 10971 10970 10969 10970
10927 10928 10930 10931 10933 10938 10942 10942 10945 10948 10951 10953 10955 10956 10959 10963 10965 10971 10972 10975 10977 10979 10979 10978 10978 10979 10978 10976 10976 10974 10973 10973 10969 10967 10967 10965 10966 10969 10971 10972 10973 10972 10972 10971 10972
10911 10912 10914 10916 10917 10922 10928 10927 10932 10937 10939 10943 10945 10946 10950 10954 10957 10962 10966 10969 10972 10974 10976 10975 10974 10976 10976 10976 10976 10974 10974 10975 10974 10971 10970 10969 10971 10972 10974 10975 10974 10974 10974 10975 10975
10895 10894 10896 10899 10899 10905 10911 10912 10915 10922 10926 10929 10933 10937 10940 10943 10947 10953 10957 10960 10965 10969 10971 10971 10971 10971 10974 10975 10975 10974 10974 10975 10976 10974 10971 10974 10975 10975 10976 10977 10976 10976 10976 10976 10977
10880 10877 10879 10880 10880 10885 10892 10895 10898 10902 10907 10913 10920 10923 10929 10933 10935 10941 10946 10952 10956 10962 10964 10966 10966 10966 10970 10972 10973 10973 10973 10973 10974 10973 10972 10973 10974 10975 10978 10978 10979 10978 10979 10978 10979
10865 10862 10863 10865 10863 10866 10870 10873 10878 10884 10884 10893 10903 10904 10915 10922 10919 10926 10935 10942 10947 10951 10954 10960 10958 10959 10964 10967 10970 10970 10971 10971 10970 10971 10972 10973 10974 10976 10977 10978 10978 10978 10979 10979 10979
10852 10848 10847 10849 10848 10851 10852 10854 10858 10865 10866 10866 10882 10889 10894 10907 10903 10909 10919 10930 10935 10940 10944 10950 10946 10953 10959 10959 10963 10965 10967 10968 10969 10969 10971 10973 10973 10974 10975 10977 10976 10977 10977 10977 10977
10838 10834 10832 10832 10833 10836 10835 10836 10840 10846 10850 10836 10857 10870 10875 10883 10887 10891 10905 10914 10922 10928 10932 10938 10935 10945 10951 10953 10952 10957 10960 10964 10965 10966 10969 10970 10971 10971 10972 10973 10973 10973 10974 10975 10975
10828 10825 10817 10814 10816 10819 10818 10820 10823 10825 10830 10824 10831 10841 10852 10860 10867 10876 10887 10895 10908 10914 10921 10927 10923 10934 10942 10943 10941 10941 10952 10957 10961 10962 10965 10966 10967 10968 10969 10968 10967 10968 10969 10970 10970
10813 10812 10805 10803 10801 10802 10800 10801 10804 10808 10812 10808 10811 10817 10825 10837 10845 10855 10864 10874 10884 10896 10908 10911 10909 10921 10930 10932 10933 10928 10942 10950 10954 10957 10960 10960 10963 10964 10965 10964 10964 10965 10965 10965 10965
10796 10793 10792 10786 10785 10785 10784 10784 10785 10792 10789 10789 10790 10798 10803 10811 10823 10832 10844 10854 10864 10877 10893 10897 10900 10906 10914 10920 10926 10928 10930 10941 10947 10951 10951 10953 10955 10959 10959 10959 10960 10961 10961 10961 10963
10776 10775 10774 10771 10767 10766 10766 10767 10773 10776 10770 10767 10770 10778 10786 10789 10799 10809 10823 10833 10845 10859 10872 10880 10884 10890 10901 10909 10915 10919 10921 10929 10935 10939 10938 10943 10946 10952 10954 10953 10953 10955 10956 10956 10957
10755 10750 10748 10749 10746 10743 10747 10751 10756 10753 10752 10749 10747 10758 10768 10773 10776 10790 10796 10812 10821 10835 10848 10860 10870 10872 10879 10888 10895 10906 10914 10918 10922 10929 10931 10930 10933 10943 10945 10943 10945 10948 10949 10950 10950
10730 10724 10723 10722 10721 10719 10724 10734 10733 10730 10728 10728 10729 10739 10747 10756 10761 10763 10774 10784 10794 10808 10821 10836 10847 10850 10857 10866 10880 10891 10896 10901 10912 10921 10926 10925 10924 10928 10935 10934 10936 10937 10939 10941 10942
10704 10698 10693 10693 10693 10694 10704 10709 10707 10707 10706 10708 10713 10718 10728 10732 10739 10744 10752 10759 10767 10778 10793 10808 10822 10829 10835 10851 10867 10876 10881 10890 10901 10910 10917 10919 10919 10914 10921 10924 10927 10927 10928 10930 10932
10670 10667 10662 10659 10661 10669 10675 10681 10683 10682 10682 10689 10695 10698 10704 10709 10723 10729 10732 10735 10741 10751 10766 10782 10795 10806 10825 10836 10842 10854 10864 10874 10884 10897 10903 10907 10911 10903 10905 10912 10917 10918 10918 10919 10921
10631 10631 10631 10628 10628 10634 10644 10652 10655 10658 10657 10665 10673 10678 10683 10691 10702 10709 10710 10709 10718 10727 10741 10756 10775 10791 10798 10807 10821 10841 10857 10866 10873 10880 10891 10897 10902 10897 10896 10900 10905 10906 10909 10907 10908
10589 10589 10593 10592 10595 10600 10610 10619 10625 10630 10634 10640 10650 10656 10662 10671 10681 10690 10693 10687 10696 10707 10716 10733 10754 10772 10785 10804 10811 10817 10834 10846 10855 10867 10876 10890 10890 10882 10887 10891 10893 10895 10897 10898 10900
10540 10543 10543 10550 10554 10563 10573 10584 10593 10601 10609 10615 10625 10634 10639 10651 10660 10673 10674 10670 10678 10686 10694 10712 10736 10749 10771 10779 10784 10798 10810 10823 10835 10854 10859 10873 10872 10868 10874 10879 10882 10886 10890 10890 10890
10485 10485 10488 10498 10504 10517 10531 10545 10556 10568 10581 10589 10600 10607 10617 10635 10642 10650 10651 10652 10661 10665 10677 10697 10714 10727 10750 10759 10763 10776 10790 10801 10814 10827 10838 10849 10859 10860 10859 10865 10871 10876 10880 10878 10876
10432 10434 10439 10449 10452 10468 10483 10503 10518 10533 10548 10561 10571 10586 10598 10610 10619 10627 10637 10636 10643 10648 10660 10678 10693 10709 10732 10735 10741 10743 10766 10780 10798 10811 10823 10834 10847 10840 10845 10851 10855 10859 10863 10865 10863